Location: Forli
(44.2227°N, 12.0407°E)
Time: 14:12:32
(UTC+02:00)

UWE-3 - Pass Details

Date: 28 April 2026
Orbit: 542 x 613 km, 97.9° (Epoch: 10 May)

Event Time Altitude Azimuth Distance (km) Brightness Sun altitude
Rises 04:22:33 0° 9° (N) 2,716 ? -17.0°
Reaches altitude 10° 04:24:41 10° 6° (N) 1,816 ? -16.7°
Maximum altitude 04:28:33 60° 286° (WNW) 626 ? -16.2°
Enters shadow 04:30:13 31° 219° (SW) 968 ? -15.9°
